Showing default

COSMOS 2448 (GLONASS), 33468

Orbit data source: Space-Track

COSMOS 2448 (GLONASS), 33468 is a Commonwealth of Independent States-origin payload satellite in MEO that was launched on Thu, 25 Dec 2008 UTC via a PROTON-M/DM-2 launch vehicle from the Tyuratam Missile And Space Complex (TTMTR). Payload-class satellites include a variety of spacecraft equipped with specific instruments for various scientific and technological missions. These include communications satellites like Starlink; space stations such as the ISS; scientific satellites like the Hubble; Earth observation satellites from companies like Planet Labs, Umbra, and HawkEye 360; GPS; miniature CubeSats for education and research; and military/defense satellites.

Loading next visibility...
Identifier
33468, 2008-067C
Orbit
MEO
Country
Flag of CISCIS
Related business
Manufacturer
Resehetnev ISS
Mission
Non-operational Defense Navigation
Bus & Motor
URAGAN, Unknown motor
Mass
1,450 kg wet, ~1,200 kg dry
Launch date (UTC)
2008-12-25 (17 years ago)
Launch vehicle
PROTON-M/DM-2
Launch site
Tyuratam Missile And Space Complex (TTMTR)
Object type
Payload
Rocket body
Debris
Shape & HBR
Cyl + 1 Ant + 2 Pan, 3.9 m
Radar Cross Section
8.467 m², Large (>1 m²)

Expand to show TLE details & history
Last TLE update: 1 day ago

TLE from 1 day ago
0 COSMOS 2448 (GLONASS)
1 33468U 08067C   25304.57548367  .00000037  00000-0  00000+0 0  9993
2 33468  64.6780  77.1479 0003149 197.6279 162.3609  2.13116654131168
Epoch: 2025-10-31T13:48Z
TLE epoch observation values (Epoch: 2025-10-31T13:48:41.789Z)
Latitude
Longitude
-170.15813°
Altitude
19,136.931 km
Speed
3.952 km/s
True Right ascension
05h 08m 32s
True Declination
0° 00' 00"
Sunlit
Object was in daylight at epoch
Visualization orbit readout
Latitude
Unknown
Longitude
Unknown
Altitude
Unknown
Speed
Unknown
Apparent Right ascension
Unknown
Apparent Declination
Unknown
Sunlit
N/A
Visualization observer readout
Local Sidereal Time
11:59:21
Azimuth
Unknown
Elevation
Unknown
Doppler factor
Unknown
Orbital elements
Apogee altitude
19,136.376 km
Perigee altitude
19,120.312 km
Semi-major axis
25,506.481 km
Eccentricity
0.00031
Inclination
64.678°
RAAN
77.1479°
Arg. of periapsis
197.6279°
True anomaly
162.37183°
Mean anomaly
162.3609°
Eccentric anomaly
162.36637°
Mean motion
0.5328 °/min
Orbital period
675.67 mins
BSTAR
0
Loading maneuver chart data...
Computing Atmospheric mass density...
Loading historical data...
Loading historical data...
Loading historical data...
Loading historical data...
Loading historical data...
Loading historical data...
Loading historical data...

Documentation

Showing up to 5 results
|